| time (UTC) | temp C | wind direction | speed KPH | gust KPH | rain 1hr cm | rain 24hr cm | rain mn cm | humidity % | barometer mb |
| 20260505091002 | 21 | 190 | 14.5 | 25.7 | 0.00 | 0.00 | 0.00 | 84 | 1004.8 |
| 20260505090500 | 21 | 160 | 12.9 | 32.2 | 0.00 | 0.00 | 0.00 | 84 | 1004.6 |
| 20260505085957 | 21 | 147 | 24.1 | 27.4 | 0.00 | 0.00 | 0.00 | 84 | 1004.5 |
| 20260505085455 | 21 | 158 | 17.7 | 37.0 | 0.00 | 0.00 | 0.00 | 84 | 1004.6 |
| 20260505084953 | 21 | 173 | 17.7 | 32.2 | 0.00 | 0.00 | 0.00 | 84 | 1004.5 |
| 20260505084451 | 21 | 176 | 24.1 | 29.0 | 0.00 | 0.00 | 0.00 | 84 | 1004.9 |
| 20260505083949 | 21 | 139 | 9.7 | 32.2 | 0.00 | 0.00 | 0.00 | 84 | 1004.7 |
| 20260505083446 | 21 | 166 | 6.4 | 24.1 | 0.00 | 0.00 | 0.00 | 84 | 1004.9 |
| 20260505082942 | 21 | 155 | 19.3 | 27.4 | 0.00 | 0.00 | 0.00 | 84 | 1004.8 |
| 20260505082438 | 21 | 177 | 14.5 | 27.4 | 0.00 | 0.00 | 0.00 | 84 | 1005.0 |
| 20260505081935 | 21 | 166 | 19.3 | 33.8 | 0.00 | 0.00 | 0.00 | 84 | 1004.8 |
| 20260505081432 | 21 | 158 | 25.7 | 33.8 | 0.00 | 0.00 | 0.00 | 84 | 1005.0 |
| 20260505080928 | 21 | 152 | 17.7 | 24.1 | 0.00 | 0.00 | 0.00 | 84 | 1005.1 |
| 20260505080425 | 21 | 169 | 14.5 | 30.6 | 0.00 | 0.00 | 0.00 | 84 | 1005.1 |
| 20260505075920 | 21 | 151 | 14.5 | 30.6 | 0.00 | 0.00 | 0.00 | 84 | 1005.4 |
| 20260505075417 | 21 | 168 | 11.3 | 33.8 | 0.00 | 0.00 | 0.00 | 84 | 1005.2 |
| 20260505074915 | 21 | 135 | 19.3 | 30.6 | 0.00 | 0.00 | 0.00 | 84 | 1005.2 |
| 20260505074412 | 21 | 152 | 25.7 | 33.8 | 0.00 | 0.00 | 0.00 | 84 | 1005.4 |
| 20260505073909 | 21 | 170 | 12.9 | 24.1 | 0.00 | 0.00 | 0.00 | 84 | 1005.6 |
| 20260505073407 | 21 | 164 | 14.5 | 27.4 | 0.00 | 0.00 | 0.00 | 84 | 1005.5 |
| 20260505072904 | 21 | 152 | 14.5 | 27.4 | 0.00 | 0.00 | 0.00 | 84 | 1005.6 |
| 20260505072359 | 21 | 147 | 16.1 | 22.5 | 0.00 | 0.00 | 0.00 | 84 | 1005.7 |
| 20260505071856 | 21 | 170 | 11.3 | 30.6 | 0.00 | 0.00 | 0.00 | 84 | 1005.7 |
| 20260505071352 | 21 | 145 | 16.1 | 25.7 | 0.00 | 0.00 | 0.00 | 84 | 1005.8 |
| 20260505070850 | 21 | 153 | 9.7 | 30.6 | 0.00 | 0.00 | 0.00 | 83 | 1005.7 |
| 20260505070346 | 21 | 163 | 14.5 | 27.4 | 0.00 | 0.00 | 0.00 | 83 | 1005.8 |
| 20260505065842 | 21 | 143 | 9.7 | 19.3 | 0.00 | 0.00 | 0.00 | 83 | 1006.0 |
| 20260505065339 | 21 | 184 | 12.9 | 30.6 | 0.00 | 0.00 | 0.00 | 83 | 1006.1 |
| 20260505064836 | 21 | 168 | 12.9 | 24.1 | 0.00 | 0.00 | 0.00 | 83 | 1006.0 |
| 20260505064333 | 21 | 155 | 14.5 | 29.0 | 0.00 | 0.00 | 0.00 | 82 | 1005.9 |
| 20260505063831 | 21 | 148 | 17.7 | 29.0 | 0.00 | 0.00 | 0.00 | 82 | 1005.9 |
| 20260505063326 | 21 | 155 | 16.1 | 19.3 | 0.00 | 0.00 | 0.00 | 82 | 1006.0 |
| 20260505062823 | 21 | 170 | 17.7 | 27.4 | 0.00 | 0.00 | 0.00 | 82 | 1006.2 |
| 20260505062321 | 21 | 152 | 22.5 | 32.2 | 0.00 | 0.00 | 0.00 | 82 | 1006.1 |
| 20260505061818 | 21 | 170 | 12.9 | 29.0 | 0.00 | 0.00 | 0.00 | 81 | 1006.3 |
| 20260505061316 | 21 | 149 | 16.1 | 25.7 | 0.00 | 0.00 | 0.00 | 81 | 1006.3 |
| 20260505060813 | 21 | 170 | 14.5 | 32.2 | 0.00 | 0.00 | 0.00 | 81 | 1006.2 |
| 20260505060310 | 22 | 142 | 14.5 | 32.2 | 0.00 | 0.00 | 0.00 | 80 | 1006.3 |
| 20260505055805 | 22 | 150 | 14.5 | 35.4 | 0.00 | 0.00 | 0.00 | 80 | 1006.1 |
| 20260505055303 | 21 | 147 | 19.3 | 27.4 | 0.00 | 0.00 | 0.00 | 80 | 1006.3 |
| 20260505054759 | 21 | 132 | 20.9 | 29.0 | 0.00 | 0.00 | 0.00 | 80 | 1006.4 |
| 20260505054257 | 22 | 167 | 14.5 | 32.2 | 0.00 | 0.00 | 0.00 | 79 | 1006.3 |
| 20260505053755 | 22 | 177 | 16.1 | 30.6 | 0.00 | 0.00 | 0.00 | 80 | 1006.1 |
| 20260505053251 | 22 | 141 | 20.9 | 25.7 | 0.00 | 0.00 | 0.00 | 79 | 1006.4 |
| 20260505052748 | 22 | 164 | 20.9 | 30.6 | 0.00 | 0.00 | 0.00 | 79 | 1006.5 |
| 20260505052245 | 22 | 175 | 14.5 | 27.4 | 0.00 | 0.00 | 0.00 | 79 | 1006.7 |
| 20260505051742 | 22 | 152 | 19.3 | 27.4 | 0.00 | 0.00 | 0.00 | 79 | 1006.4 |
| 20260505051240 | 22 | 168 | 19.3 | 33.8 | 0.00 | 0.00 | 0.00 | 78 | 1006.5 |
| 20260505050738 | 22 | 190 | 16.1 | 29.0 | 0.00 | 0.00 | 0.00 | 78 | 1006.5 |
| 20260505050236 | 22 | 154 | 27.4 | 29.0 | 0.00 | 0.00 | 0.00 | 77 | 1006.5 |
| 20260505041706 | 22 | 164 | 24.1 | 29.0 | 0.00 | 0.00 | 0.00 | 74 | 1006.7 |
| 20260505041203 | 22 | 139 | 24.1 | 29.0 | 0.00 | 0.00 | 0.00 | 74 | 1006.7 |
| 20260505040700 | 22 | 142 | 16.1 | 27.4 | 0.00 | 0.00 | 0.00 | 74 | 1006.8 |
| 20260505040157 | 22 | 166 | 19.3 | 33.8 | 0.00 | 0.00 | 0.00 | 74 | 1006.7 |
| 20260505035654 | 22 | 153 | 16.1 | 19.3 | 0.00 | 0.00 | 0.00 | 75 | 1006.7 |
| 20260505035150 | 22 | 156 | 14.5 | 27.4 | 0.00 | 0.00 | 0.00 | 74 | 1006.6 |
| 20260505034647 | 22 | 154 | 20.9 | 27.4 | 0.00 | 0.00 | 0.00 | 74 | 1006.4 |
| 20260505034144 | 22 | 135 | 17.7 | 25.7 | 0.00 | 0.00 | 0.00 | 73 | 1006.6 |
| 20260505033640 | 22 | 140 | 17.7 | 30.6 | 0.00 | 0.00 | 0.00 | 73 | 1006.6 |
| 20260505033139 | 22 | 148 | 16.1 | 24.1 | 0.00 | 0.00 | 0.00 | 73 | 1006.8 |
| 20260505032636 | 22 | 152 | 16.1 | 29.0 | 0.00 | 0.00 | 0.00 | 73 | 1006.7 |
| 20260505032132 | 22 | 193 | 12.9 | 29.0 | 0.00 | 0.00 | 0.00 | 72 | 1006.7 |
| 20260505031630 | 22 | 169 | 11.3 | 22.5 | 0.00 | 0.00 | 0.00 | 72 | 1006.8 |
| 20260505031125 | 23 | 159 | 14.5 | 30.6 | 0.00 | 0.00 | 0.00 | 72 | 1006.8 |
| 20260505030623 | 23 | 129 | 11.3 | 24.1 | 0.00 | 0.00 | 0.00 | 72 | 1006.9 |
| 20260505030119 | 23 | 156 | 20.9 | 27.4 | 0.00 | 0.00 | 0.00 | 72 | 1007.0 |
| 20260505025614 | 23 | 141 | 14.5 | 22.5 | 0.00 | 0.00 | 0.00 | 72 | 1006.8 |
| 20260505025114 | 23 | 155 | 16.1 | 24.1 | 0.00 | 0.00 | 0.00 | 72 | 1006.7 |
| 20260505024610 | 23 | 160 | 14.5 | 22.5 | 0.00 | 0.00 | 0.00 | 72 | 1006.5 |
| 20260505024108 | 23 | 150 | 20.9 | 27.4 | 0.00 | 0.00 | 0.00 | 72 | 1006.3 |
| 20260505023605 | 23 | 152 | 20.9 | 25.7 | 0.00 | 0.00 | 0.00 | 72 | 1006.2 |
| 20260505023102 | 23 | 142 | 19.3 | 25.7 | 0.00 | 0.00 | 0.00 | 71 | 1006.3 |
| 20260505022600 | 23 | 156 | 12.9 | 20.9 | 0.00 | 0.00 | 0.00 | 71 | 1006.6 |
| 20260505022056 | 23 | 146 | 17.7 | 20.9 | 0.00 | 0.00 | 0.00 | 71 | 1006.4 |
| 20260505021553 | 23 | 154 | 12.9 | 20.9 | 0.00 | 0.00 | 0.00 | 71 | 1006.4 |
| 20260505021050 | 23 | 145 | 17.7 | 25.7 | 0.00 | 0.00 | 0.00 | 70 | 1006.6 |
| 20260505020550 | 23 | 159 | 11.3 | 24.1 | 0.00 | 0.00 | 0.00 | 71 | 1006.4 |
| 20260505020047 | 23 | 164 | 12.9 | 22.5 | 0.00 | 0.00 | 0.00 | 70 | 1006.4 |
| 20260505015544 | 23 | 153 | 20.9 | 24.1 | 0.00 | 0.00 | 0.00 | 70 | 1006.5 |
| 20260505015041 | 23 | 159 | 14.5 | 24.1 | 0.00 | 0.00 | 0.00 | 69 | 1006.5 |
| 20260505014537 | 23 | 160 | 14.5 | 19.3 | 0.00 | 0.00 | 0.00 | 69 | 1006.4 |
| 20260505014035 | 23 | 145 | 24.1 | 29.0 | 0.00 | 0.00 | 0.00 | 68 | 1006.5 |
| 20260505013532 | 23 | 147 | 16.1 | 20.9 | 0.00 | 0.00 | 0.00 | 68 | 1006.4 |
| 20260505013029 | 23 | 174 | 11.3 | 17.7 | 0.00 | 0.00 | 0.00 | 68 | 1006.3 |
| 20260505012527 | 23 | 152 | 16.1 | 22.5 | 0.00 | 0.00 | 0.00 | 68 | 1006.3 |
| 20260505012024 | 23 | 149 | 11.3 | 22.5 | 0.00 | 0.00 | 0.00 | 68 | 1006.4 |
| 20260505011519 | 23 | 172 | 17.7 | 24.1 | 0.00 | 0.00 | 0.00 | 67 | 1006.6 |
| 20260505011017 | 24 | 160 | 14.5 | 24.1 | 0.00 | 0.00 | 0.00 | 67 | 1006.5 |
| 20260505010512 | 24 | 188 | 8.0 | 20.9 | 0.00 | 0.00 | 0.00 | 66 | 1006.6 |
| 20260505010009 | 24 | 149 | 17.7 | 20.9 | 0.00 | 0.00 | 0.00 | 66 | 1006.4 |
| 20260505005505 | 24 | 180 | 11.3 | 24.1 | 0.00 | 0.00 | 0.00 | 66 | 1006.3 |
| 20260505005004 | 25 | 150 | 17.7 | 24.1 | 0.00 | 0.00 | 0.00 | 65 | 1006.6 |
| 20260505004500 | 25 | 160 | 14.5 | 22.5 | 0.00 | 0.00 | 0.00 | 65 | 1006.4 |
| 20260505003956 | 25 | 139 | 19.3 | 24.1 | 0.00 | 0.00 | 0.00 | 64 | 1006.4 |
| 20260505003454 | 25 | 148 | 16.1 | 25.7 | 0.00 | 0.00 | 0.00 | 64 | 1006.3 |
| 20260505002950 | 25 | 146 | 22.5 | 35.4 | 0.00 | 0.00 | 0.00 | 63 | 1006.6 |
| 20260505002446 | 25 | 165 | 17.7 | 33.8 | 0.00 | 0.00 | 0.00 | 62 | 1006.7 |
| 20260505001945 | 25 | 146 | 14.5 | 24.1 | 0.00 | 0.00 | 0.00 | 62 | 1006.6 |
| 20260505001442 | 25 | 145 | 19.3 | 35.4 | 0.00 | 0.00 | 0.00 | 62 | 1006.6 |
| 20260505000938 | 25 | 165 | 9.7 | 22.5 | 0.00 | 0.00 | 0.00 | 62 | 1006.5 |
| 20260505000437 | 25 | 148 | 20.9 | 32.2 | 0.00 | 0.00 | 0.00 | 62 | 1006.6 |
| 20260504235933 | 25 | 165 | 20.9 | 30.6 | 0.00 | 0.00 | 0.00 | 62 | 1006.7 |
| 20260504235431 | 25 | 165 | 20.9 | 29.0 | 0.00 | 0.00 | 0.00 | 61 | 1006.7 |
| 20260504234926 | 25 | 136 | 24.1 | 32.2 | 0.00 | 0.00 | 0.00 | 61 | 1006.7 |
| 20260504234424 | 25 | 160 | 17.7 | 20.9 | 0.00 | 0.00 | 0.00 | 61 | 1006.8 |
| 20260504233920 | 25 | 164 | 22.5 | 25.7 | 0.00 | 0.00 | 0.00 | 61 | 1006.8 |
| 20260504233416 | 25 | 184 | 12.9 | 27.4 | 0.00 | 0.00 | 0.00 | 60 | 1006.7 |
| 20260504232913 | 26 | 155 | 22.5 | 27.4 | 0.00 | 0.00 | 0.00 | 60 | 1006.8 |
| 20260504232410 | 26 | 167 | 17.7 | 40.2 | 0.00 | 0.00 | 0.00 | 59 | 1006.8 |
| 20260504231907 | 26 | 167 | 17.7 | 32.2 | 0.00 | 0.00 | 0.00 | 60 | 1006.9 |
| 20260504231403 | 26 | 149 | 27.4 | 32.2 | 0.00 | 0.00 | 0.00 | 59 | 1006.8 |
| 20260504230900 | 26 | 160 | 27.4 | 33.8 | 0.00 | 0.00 | 0.00 | 59 | 1006.9 |
| 20260504230357 | 26 | 176 | 19.3 | 29.0 | 0.00 | 0.00 | 0.00 | 59 | 1007.1 |
| 20260504225856 | 26 | 154 | 19.3 | 29.0 | 0.00 | 0.00 | 0.00 | 58 | 1007.2 |
| 20260504225352 | 26 | 156 | 16.1 | 27.4 | 0.00 | 0.00 | 0.00 | 57 | 1007.1 |
| 20260504224850 | 27 | 164 | 19.3 | 24.1 | 0.00 | 0.00 | 0.00 | 57 | 1007.2 |
| 20260504224346 | 26 | 149 | 17.7 | 33.8 | 0.00 | 0.00 | 0.00 | 57 | 1007.2 |
| 20260504223843 | 26 | 178 | 22.5 | 29.0 | 0.00 | 0.00 | 0.00 | 58 | 1007.2 |
| 20260504223338 | 26 | 173 | 14.5 | 32.2 | 0.00 | 0.00 | 0.00 | 58 | 1007.0 |
| 20260504222835 | 26 | 155 | 20.9 | 32.2 | 0.00 | 0.00 | 0.00 | 58 | 1007.2 |
| 20260504222332 | 26 | 192 | 20.9 | 29.0 | 0.00 | 0.00 | 0.00 | 57 | 1007.2 |
| 20260504221831 | 26 | 163 | 22.5 | 30.6 | 0.00 | 0.00 | 0.00 | 57 | 1007.2 |
| 20260504221327 | 26 | 213 | 16.1 | 29.0 | 0.00 | 0.00 | 0.00 | 57 | 1007.3 |
| 20260504220824 | 26 | 154 | 19.3 | 29.0 | 0.00 | 0.00 | 0.00 | 57 | 1007.6 |
| 20260504220321 | 26 | 150 | 19.3 | 33.8 | 0.00 | 0.00 | 0.00 | 56 | 1007.8 |
| 20260504215818 | 26 | 158 | 17.7 | 37.0 | 0.00 | 0.00 | 0.00 | 57 | 1007.7 |
| 20260504215314 | 26 | 161 | 20.9 | 33.8 | 0.00 | 0.00 | 0.00 | 57 | 1007.7 |
| 20260504214811 | 26 | 190 | 19.3 | 33.8 | 0.00 | 0.00 | 0.00 | 56 | 1007.7 |
| 20260504214308 | 26 | 154 | 24.1 | 41.8 | 0.00 | 0.00 | 0.00 | 56 | 1008.0 |
| 20260504213804 | 26 | 158 | 19.3 | 41.8 | 0.00 | 0.00 | 0.00 | 56 | 1008.2 |
| 20260504213300 | 27 | 152 | 22.5 | 35.4 | 0.00 | 0.00 | 0.00 | 55 | 1007.8 |
| 20260504212758 | 27 | 172 | 14.5 | 32.2 | 0.00 | 0.00 | 0.00 | 55 | 1008.1 |
| 20260504212254 | 26 | 160 | 24.1 | 41.8 | 0.00 | 0.00 | 0.00 | 55 | 1008.1 |
| 20260504211752 | 26 | 163 | 20.9 | 41.8 | 0.00 | 0.00 | 0.00 | 55 | 1008.2 |
| 20260504211247 | 26 | 155 | 19.3 | 37.0 | 0.00 | 0.00 | 0.00 | 56 | 1008.4 |
| 20260504210745 | 26 | 173 | 24.1 | 40.2 | 0.00 | 0.00 | 0.00 | 54 | 1008.4 |
| 20260504210242 | 26 | 180 | 20.9 | 35.4 | 0.00 | 0.00 | 0.00 | 55 | 1008.5 |
| 20260504205739 | 26 | 145 | 27.4 | 35.4 | 0.00 | 0.00 | 0.00 | 55 | 1008.8 |
| 20260504205237 | 26 | 176 | 12.9 | 27.4 | 0.00 | 0.00 | 0.00 | 54 | 1008.6 |
| 20260504204735 | 26 | 160 | 27.4 | 41.8 | 0.00 | 0.00 | 0.00 | 53 | 1008.7 |
| 20260504204233 | 27 | 152 | 22.5 | 33.8 | 0.00 | 0.00 | 0.00 | 54 | 1008.8 |
| 20260504203732 | 26 | 185 | 17.7 | 30.6 | 0.00 | 0.00 | 0.00 | 53 | 1008.9 |
| 20260504203229 | 26 | 141 | 25.7 | 33.8 | 0.00 | 0.00 | 0.00 | 53 | 1009.1 |
| 20260504202729 | 26 | 148 | 19.3 | 29.0 | 0.00 | 0.00 | 0.00 | 52 | 1009.2 |
| 20260504202226 | 26 | 163 | 17.7 | 29.0 | 0.00 | 0.00 | 0.00 | 55 | 1009.5 |
| 20260504201723 | 26 | 160 | 20.9 | 32.2 | 0.00 | 0.00 | 0.00 | 53 | 1009.6 |
| 20260504201220 | 26 | 172 | 22.5 | 37.0 | 0.00 | 0.00 | 0.00 | 53 | 1009.6 |
| 20260504200718 | 26 | 145 | 20.9 | 43.5 | 0.00 | 0.00 | 0.00 | 53 | 1009.7 |
| 20260504200214 | 26 | 177 | 14.5 | 30.6 | 0.00 | 0.00 | 0.00 | 53 | 1009.8 |
| 20260504195711 | 27 | 178 | 30.6 | 41.8 | 0.00 | 0.00 | 0.00 | 50 | 1009.9 |
| 20260504195206 | 26 | 151 | 19.3 | 25.7 | 0.00 | 0.00 | 0.00 | 52 | 1009.8 |
| 20260504194704 | 26 | 154 | 25.7 | 43.5 | 0.00 | 0.00 | 0.00 | 51 | 1010.1 |
| 20260504194200 | 26 | 180 | 14.5 | 27.4 | 0.00 | 0.00 | 0.00 | 51 | 1010.1 |
| 20260504193656 | 26 | 156 | 16.1 | 37.0 | 0.00 | 0.00 | 0.00 | 52 | 1010.2 |
| 20260504193154 | 26 | 173 | 24.1 | 33.8 | 0.00 | 0.00 | 0.00 | 52 | 1010.2 |
| 20260504192652 | 26 | 146 | 16.1 | 35.4 | 0.00 | 0.00 | 0.00 | 52 | 1010.5 |
| 20260504192150 | 26 | 153 | 19.3 | 30.6 | 0.00 | 0.00 | 0.00 | 52 | 1010.3 |
| 20260504191648 | 26 | 191 | 20.9 | 30.6 | 0.00 | 0.00 | 0.00 | 50 | 1010.7 |
| 20260504191144 | 26 | 202 | 14.5 | 32.2 | 0.00 | 0.00 | 0.00 | 50 | 1010.7 |
| 20260504190640 | 26 | 151 | 27.4 | 32.2 | 0.00 | 0.00 | 0.00 | 51 | 1010.7 |
| 20260504190137 | 26 | 168 | 22.5 | 33.8 | 0.00 | 0.00 | 0.00 | 50 | 1010.5 |
| 20260504185633 | 26 | 170 | 9.7 | 29.0 | 0.00 | 0.00 | 0.00 | 51 | 1010.7 |
| 20260504185130 | 25 | 150 | 11.3 | 37.0 | 0.00 | 0.00 | 0.00 | 51 | 1010.8 |
| 20260504184626 | 26 | 162 | 14.5 | 27.4 | 0.00 | 0.00 | 0.00 | 50 | 1010.9 |
| 20260504184121 | 25 | 150 | 20.9 | 35.4 | 0.00 | 0.00 | 0.00 | 48 | 1011.1 |
| 20260504183618 | 25 | 166 | 17.7 | 33.8 | 0.00 | 0.00 | 0.00 | 49 | 1011.0 |
| 20260504183116 | 25 | 155 | 20.9 | 40.2 | 0.00 | 0.00 | 0.00 | 48 | 1011.2 |
| 20260504182614 | 25 | 194 | 29.0 | 32.2 | 0.00 | 0.00 | 0.00 | 47 | 1011.4 |
| 20260504182111 | 25 | 167 | 20.9 | 27.4 | 0.00 | 0.00 | 0.00 | 47 | 1011.3 |
| 20260504181608 | 25 | 176 | 9.7 | 24.1 | 0.00 | 0.00 | 0.00 | 46 | 1011.3 |
| 20260504181105 | 25 | 127 | 16.1 | 38.6 | 0.00 | 0.00 | 0.00 | 48 | 1011.3 |
| 20260504180604 | 25 | 155 | 29.0 | 37.0 | 0.00 | 0.00 | 0.00 | 46 | 1011.4 |
| 20260504180103 | 25 | 164 | 29.0 | 29.0 | 0.00 | 0.00 | 0.00 | 47 | 1011.5 |
| 20260504175600 | 25 | 142 | 29.0 | 37.0 | 0.00 | 0.00 | 0.00 | 47 | 1011.8 |
| 20260504175056 | 25 | 140 | 27.4 | 32.2 | 0.00 | 0.00 | 0.00 | 49 | 1011.8 |
| 20260504174555 | 25 | 187 | 19.3 | 37.0 | 0.00 | 0.00 | 0.00 | 49 | 1011.7 |
| 20260504174051 | 25 | 152 | 19.3 | 27.4 | 0.00 | 0.00 | 0.00 | 49 | 1011.9 |
| 20260504173548 | 25 | 174 | 17.7 | 35.4 | 0.00 | 0.00 | 0.00 | 49 | 1012.0 |
| 20260504173045 | 24 | 178 | 12.9 | 43.5 | 0.00 | 0.00 | 0.00 | 51 | 1011.9 |
| 20260504172541 | 24 | 139 | 24.1 | 33.8 | 0.00 | 0.00 | 0.00 | 52 | 1012.0 |
| 20260504172038 | 23 | 150 | 24.1 | 38.6 | 0.00 | 0.00 | 0.00 | 51 | 1012.2 |
| 20260504171535 | 24 | 181 | 19.3 | 37.0 | 0.00 | 0.00 | 0.00 | 49 | 1012.4 |
| 20260504171032 | 23 | 124 | 24.1 | 35.4 | 0.00 | 0.00 | 0.00 | 52 | 1012.2 |
| 20260504170527 | 23 | 206 | 12.9 | 35.4 | 0.00 | 0.00 | 0.00 | 52 | 1012.4 |
| 20260504150912 | 21 | 168 | 17.7 | 32.2 | 0.00 | 0.00 | 0.00 | 64 | 1013.4 |
| 20260504150408 | 20 | 178 | 14.5 | 32.2 | 0.00 | 0.00 | 0.00 | 65 | 1013.3 |
| 20260504140835 | 18 | 154 | 19.3 | 30.6 | 0.00 | 0.00 | 0.00 | 72 | 1014.1 |
| 20260504140330 | 18 | 145 | 14.5 | 25.7 | 0.00 | 0.00 | 0.00 | 73 | 1014.1 |
| 20260504130759 | 16 | 153 | 12.9 | 19.3 | 0.00 | 0.00 | 0.00 | 78 | 1013.9 |
| 20260504130255 | 16 | 153 | 9.7 | 20.9 | 0.00 | 0.00 | 0.00 | 79 | 1014.0 |
| 20260504120219 | 15 | 158 | 11.3 | 14.5 | 0.00 | 0.00 | 0.00 | 82 | 1013.6 |
| 20260504110646 | 14 | 128 | 12.9 | 16.1 | 0.00 | 0.00 | 0.00 | 82 | 1013.5 |
| 20260504110143 | 14 | 126 | 9.7 | 14.5 | 0.00 | 0.00 | 0.00 | 82 | 1013.3 |
| 20260504100609 | 15 | 157 | 9.7 | 17.7 | 0.00 | 0.00 | 0.00 | 77 | 1013.6 |
| 20260504100107 | 15 | 163 | 9.7 | 14.5 | 0.00 | 0.00 | 0.00 | 77 | 1013.6 |